Ponta Delgada, Portugal

7:57 AM +00 on April 26, 2017 (GMT +0000)
Joao Paulo Ii

Weather History for LPPD - April, 2017

Change the Weather History Date:

Friday, April 21, 2017

  Actual Average (LPAZ) Record (LPAZ)
Temperature  
Mean Temperature 60 °F -  
Max Temperature 65 °F 64 °F 69 °F (1999)
Min Temperature 56 °F 56 °F 50 °F (2015)
Degree Days  
Heating Degree Days 4    
Growing Degree Days 10 (Base 50)    
Moisture  
Dew Point 53 °F    
Average Humidity 76    
Maximum Humidity 82    
Minimum Humidity 63    
Precipitation  
Precipitation 0.00 in - - ()
Sea Level Pressure  
Sea Level Pressure 30.03 in    
Wind  
Wind Speed 6 mph ()    
Max Wind Speed 8 mph    
Max Gust Speed -    
Visibility 7.7 miles    
Events      
Averages and records for this station are not official NWS values.
T = Trace of Precipitation, MM = Missing Value Source: Averaged Metar Reports

Daily Weather History Graph

Daily Weather History Graph

Search for Another Location

Airport or City:

Trip Planner

Search our weather history database for the weather conditions in past years. The results will help you decide how hot, cold, wet, or windy it might be!

Date:

Astronomy

Apr. 21, 2017 Rise Set
Actual Time 6:59 AM +00 8:24 PM +00
Civil Twilight 6:31 AM +00 8:51 PM +00
Nautical Twilight 5:59 AM +00 9:24 PM +00
Astronomical Twilight 5:24 AM +00 9:59 PM +00
Moon 4:03 AM +00 (4/21) 3:03 PM +00 (4/21)
Length of Visible Light 14h 19m
Length of Day
13h 24m
Waning Crescent, 30% of the Moon is Illuminated
Apr 21
Waning Crescent
Apr 26
New
May 3
First Quarter
May 10
Full
May 19
Last Quarter

Hourly Weather History & Observations

Time (+00) Temp. Dew Point Humidity Pressure Visibility Wind Dir Wind Speed Gust Speed Precip Events Conditions
12:00 AM 58 °F 52 °F 75% 30.04 in 16 mi North 6.7 mph - -   Mostly Cloudy
12:00 AM 59.0 °F 51.8 °F 77% 30.04 in 6.2 mi NNE 5.8 mph - N/A   Mostly Cloudy
12:30 AM 59.0 °F 51.8 °F 77% 30.04 in 6.2 mi NNE 6.9 mph - N/A   Mostly Cloudy
1:00 AM 57.2 °F 51.8 °F 82% 30.01 in 6.2 mi NNE 6.9 mph - N/A   Mostly Cloudy
1:30 AM 57.2 °F 51.8 °F 82% 30.01 in 6.2 mi NNE 6.9 mph - N/A   Mostly Cloudy
2:00 AM 57.2 °F 51.8 °F 82% 30.01 in 6.2 mi NNE 5.8 mph - N/A   Mostly Cloudy
2:30 AM 57.2 °F 51.8 °F 82% 30.01 in 6.2 mi NE 5.8 mph - N/A   Mostly Cloudy
3:00 AM 57 °F 53 °F 81% 30.01 in 16 mi North 6.7 mph - -   Mostly Cloudy
3:00 AM 57.2 °F 51.8 °F 82% 29.98 in 6.2 mi NE 4.6 mph - N/A   Mostly Cloudy
3:30 AM 57.2 °F 51.8 °F 82% 29.98 in 6.2 mi NNE 3.5 mph - N/A   Mostly Cloudy
4:00 AM 57.2 °F 51.8 °F 82% 29.98 in 6.2 mi NNE 5.8 mph - N/A   Mostly Cloudy
4:30 AM 57.2 °F 51.8 °F 82% 29.98 in 6.2 mi NNE 3.5 mph - N/A   Mostly Cloudy
5:00 AM 57.2 °F 51.8 °F 82% 29.98 in 6.2 mi NNE 2.3 mph - N/A   Mostly Cloudy
5:30 AM 57.2 °F 51.8 °F 82% 29.98 in 6.2 mi North 4.6 mph - N/A   Mostly Cloudy
6:00 AM 57 °F 52 °F 79% 30.00 in 16 mi NNW 6.7 mph - -   Mostly Cloudy
6:00 AM 57.2 °F 51.8 °F 82% 29.98 in 6.2 mi North 6.9 mph - N/A   Mostly Cloudy
6:30 AM 57.2 °F 51.8 °F 82% 29.98 in 6.2 mi NNE 5.8 mph - N/A   Mostly Cloudy
7:00 AM 57.2 °F 51.8 °F 82% 30.01 in 6.2 mi NNE 5.8 mph - N/A   Mostly Cloudy
7:30 AM 57.2 °F 51.8 °F 82% 30.01 in 6.2 mi NNE 5.8 mph - N/A   Mostly Cloudy
8:00 AM 57.2 °F 51.8 °F 82% 30.01 in 6.2 mi North 6.9 mph - N/A   Mostly Cloudy
8:30 AM 57.2 °F 51.8 °F 82% 30.01 in 6.2 mi NNE 5.8 mph - N/A   Mostly Cloudy
9:00 AM 59 °F 53 °F 74% 30.04 in 12 mi North 6.7 mph - -   Mostly Cloudy
9:00 AM 59.0 °F 51.8 °F 77% 30.04 in 6.2 mi NE 5.8 mph - N/A   Scattered Clouds
9:30 AM 60.8 °F 51.8 °F 72% 30.04 in 6.2 mi NE 4.6 mph - N/A   Scattered Clouds
10:00 AM 60.8 °F 48.2 °F 63% 30.04 in 6.2 mi Variable 2.3 mph - N/A   Scattered Clouds
10:30 AM 60.8 °F 51.8 °F 72% 30.04 in 6.2 mi SE 4.6 mph - N/A   Scattered Clouds
11:00 AM 62.6 °F 51.8 °F 68% 30.04 in 6.2 mi SE 5.8 mph - N/A   Partly Cloudy
11:30 AM 60.8 °F 53.6 °F 77% 30.04 in 6.2 mi SSE 5.8 mph - N/A   Partly Cloudy
12:00 PM 63 °F 55 °F 68% 30.06 in 16 mi ESE 6.7 mph - -   Scattered Clouds
12:00 PM 62.6 °F 53.6 °F 72% 30.04 in 6.2 mi SSE 8.1 mph - N/A   Partly Cloudy
12:30 PM 62.6 °F 53.6 °F 72% 30.04 in 6.2 mi SE 8.1 mph - N/A   Partly Cloudy
1:00 PM 62.6 °F 53.6 °F 72% 30.04 in 6.2 mi SSE 8.1 mph - N/A   Partly Cloudy
1:30 PM 62.6 °F 53.6 °F 72% 30.04 in 6.2 mi SE 8.1 mph - N/A   Partly Cloudy
2:00 PM 64.4 °F 53.6 °F 68% 30.04 in 6.2 mi SE 8.1 mph - N/A   Partly Cloudy
2:30 PM 62.6 °F 51.8 °F 68% 30.04 in 6.2 mi SE 8.1 mph - N/A   Partly Cloudy
3:00 PM 63 °F 55 °F 67% 30.05 in 19 mi East 6.7 mph - -   Scattered Clouds
3:00 PM 64.4 °F 53.6 °F 68% 30.04 in 6.2 mi SE 8.1 mph - N/A   Partly Cloudy
3:30 PM 62.6 °F 53.6 °F 72% 30.04 in 6.2 mi SE 8.1 mph - N/A   Partly Cloudy
4:00 PM 62.6 °F 53.6 °F 72% 30.04 in 6.2 mi SSE 8.1 mph - N/A   Partly Cloudy
4:30 PM 64.4 °F 55.4 °F 73% 30.04 in 6.2 mi SE 8.1 mph - N/A   Partly Cloudy
5:00 PM 62.6 °F 53.6 °F 72% 30.04 in 6.2 mi SE 8.1 mph - N/A   Partly Cloudy
5:30 PM 62.6 °F 53.6 °F 72% 30.04 in 6.2 mi SE 8.1 mph - N/A   Partly Cloudy
6:00 PM 63 °F 55 °F 67% 30.04 in 19 mi East 6.7 mph - -   Scattered Clouds
6:00 PM 62.6 °F 53.6 °F 72% 30.04 in 6.2 mi ESE 8.1 mph - N/A   Partly Cloudy
6:30 PM 62.6 °F 53.6 °F 72% 30.04 in 6.2 mi SE 6.9 mph - N/A   Partly Cloudy
7:00 PM 62.6 °F 53.6 °F 72% 30.04 in 6.2 mi ESE 8.1 mph - N/A   Partly Cloudy
7:30 PM 60.8 °F 53.6 °F 77% 30.04 in 6.2 mi ESE 5.8 mph - N/A   Partly Cloudy
8:00 PM 60.8 °F 53.6 °F 77% 30.04 in 6.2 mi ESE 6.9 mph - N/A   Partly Cloudy
8:30 PM 59.0 °F 53.6 °F 82% 30.06 in 6.2 mi ESE 8.1 mph - N/A   Scattered Clouds
9:00 PM 60 °F 55 °F 78% 30.08 in 19 mi ENE 6.7 mph - -   Mostly Cloudy
9:00 PM 60.8 °F 53.6 °F 77% 30.06 in 6.2 mi East 5.8 mph - N/A   Scattered Clouds
9:30 PM 59.0 °F 53.6 °F 82% 30.06 in 6.2 mi ENE 5.8 mph - N/A   Scattered Clouds
10:00 PM 59.0 °F 51.8 °F 77% 30.06 in 6.2 mi NNE 4.6 mph - N/A   Partly Cloudy
10:30 PM 59.0 °F 51.8 °F 77% 30.06 in 6.2 mi North 4.6 mph - N/A   Partly Cloudy
11:00 PM 59.0 °F 50.0 °F 72% 30.06 in 6.2 mi North 5.8 mph - N/A   Partly Cloudy
11:30 PM 59.0 °F 50.0 °F 72% 30.06 in 6.2 mi North 6.9 mph - N/A   Partly Cloudy